EW7058 Weather Reports


time (UTC)temp
C
wind
direction
speed
KPH
gust
KPH
rain 1hr
cm
rain 24hr
cm
rain mn
cm
humidity
%
barometer
mb
20260510162340 25 288 4.8 9.7 0.00 0.00 0.00 48 1016.0
20260510161843 25 282 1.6 11.3 0.00 0.00 0.00 46 1015.9
20260510161340 25 291 3.2 11.3 0.00 0.00 0.00 50 1016.0
20260510160840 25 355 6.4 11.3 0.00 0.00 0.00 54 1016.0
20260510160343 25 294 6.4 8.0 0.00 0.00 0.00 54 1016.0
20260510155840 25 314 4.8 12.9 0.00 0.00 0.00 49 1016.0
20260510155340 25 300 4.8 12.9 0.00 0.00 0.00 52 1016.0
20260510154843 24 349 6.4 11.3 0.00 0.00 0.00 52 1016.0
20260510154343 24 5 3.2 9.7 0.00 0.00 0.00 52 1016.2
20260510153843 24 32 3.2 14.5 0.00 0.00 0.00 55 1016.1
20260510153340 24 355 6.4 12.9 0.00 0.00 0.00 54 1016.1
20260510152840 24 338 6.4 12.9 0.00 0.00 0.00 56 1016.1
20260510152343 23 66 3.2 11.3 0.00 0.00 0.00 58 1016.1
20260510151843 23 342 4.8 9.7 0.00 0.00 0.00 54 1016.2
20260510151340 23 283 1.6 9.7 0.00 0.00 0.00 59 1016.2
20260510150840 23 289 6.4 9.7 0.00 0.00 0.00 59 1016.1
20260510150340 23 355 3.2 8.0 0.00 0.00 0.00 61 1016.1
20260510145843 23 313 1.6 8.0 0.00 0.00 0.00 56 1016.1
20260510145340 23 311 6.4 8.0 0.00 0.00 0.00 59 1016.2
20260510144840 23 346 3.2 9.7 0.00 0.00 0.00 59 1016.2
20260510144340 23 325 8.0 11.3 0.00 0.00 0.00 59 1016.2
20260510143840 23 325 6.4 14.5 0.00 0.00 0.00 60 1016.2
20260510143340 23 324 1.6 12.9 0.00 0.00 0.00 59 1016.1
20260510142840 23 350 6.4 9.7 0.00 0.00 0.00 60 1016.2
20260510142340 22 311 6.4 9.7 0.00 0.00 0.00 63 1016.2
20260510141843 22 305 4.8 14.5 0.00 0.00 0.00 62 1016.2
20260510141343 22 331 8.0 14.5 0.00 0.00 0.00 64 1016.2
20260510140843 22 299 4.8 11.3 0.00 0.00 0.00 67 1016.2
20260510140340 22 267 3.2 9.7 0.00 0.00 0.00 67 1016.1
20260510135840 21 346 6.4 9.7 0.00 0.00 0.00 68 1016.1
20260510135340 21 340 4.8 6.4 0.00 0.00 0.00 71 1016.2
20260510134843 21 308 4.8 9.7 0.00 0.00 0.00 73 1016.3
20260510134343 21 309 4.8 6.4 0.00 0.00 0.00 75 1016.2
20260510133843 20 307 3.2 6.4 0.00 0.00 0.00 74 1016.2
20260510133340 20 306 4.8 6.4 0.00 0.00 0.00 77 1016.2
20260510132840 20 311 3.2 8.0 0.00 0.00 0.00 78 1016.2
20260510132340 19 341 4.8 6.4 0.00 0.00 0.00 82 1016.2
20260510131840 18 351 3.2 6.4 0.00 0.00 0.00 83 1016.1
20260510131340 18 342 6.4 8.0 0.00 0.00 0.00 86 1016.1
20260510130840 18 301 6.4 6.4 0.00 0.00 0.00 88 1016.2
20260510130340 17 325 1.6 4.8 0.00 0.00 0.00 89 1016.1
20260510125840 17 325 3.2 4.8 0.00 0.00 0.00 89 1016.0
20260510125343 17 325 3.2 4.8 0.00 0.00 0.00 89 1016.1
20260510124843 16 325 1.6 3.2 0.00 0.00 0.00 89 1016.1
20260510124343 16 325 0.0 4.8 0.00 0.00 0.00 89 1016.1
20260510123843 16 326 1.6 4.8 0.00 0.00 0.00 89 1016.0
20260510123340 16 325 3.2 4.8 0.00 0.00 0.00 89 1016.0
20260510122840 16 342 3.2 6.4 0.00 0.00 0.00 89 1015.9
20260510122343 15 342 1.6 4.8 0.00 0.00 0.00 89 1015.8
20260510121840 15 326 1.6 3.2 0.00 0.00 0.00 89 1015.6
20260510121343 15 326 0.0 4.8 0.00 0.00 0.00 89 1015.7
20260510120840 15 209 0.0 0.0 0.00 0.00 0.00 89 1015.5
20260510120343 14 209 0.0 0.0 0.00 0.00 0.00 89 1015.3
20260510115843 14 209 0.0 0.0 0.00 0.00 0.00 89 1015.2
20260510115340 13 209 0.0 0.0 0.00 0.00 0.00 89 1015.1
20260510114843 13 200 0.0 0.0 0.00 0.00 0.00 89 1015.1
20260510114340 13 200 0.0 1.6 0.00 0.00 0.00 89 1015.1
20260510113840 12 186 0.0 0.0 0.00 0.00 0.00 89 1015.0
20260510113343 12 186 0.0 0.0 0.00 0.00 0.00 90 1014.9
20260510112840 12 186 0.0 1.6 0.00 0.00 0.00 89 1014.9
20260510112340 12 235 0.0 0.0 0.00 0.00 0.00 90 1014.9
20260510111840 12 235 0.0 0.0 0.00 0.00 0.00 90 1014.8
20260510111343 11 235 0.0 0.0 0.00 0.00 0.00 89 1014.7
20260510110840 11 165 0.0 0.0 0.00 0.00 0.00 90 1014.6
20260510110340 11 159 0.0 0.0 0.00 0.00 0.00 90 1014.5
20260510105840 11 159 0.0 0.0 0.00 0.00 0.00 90 1014.5
20260510105340 11 159 0.0 0.0 0.00 0.00 0.00 90 1014.4
20260510104843 11 159 0.0 0.0 0.00 0.00 0.00 89 1014.4
20260510104340 11 159 0.0 0.0 0.00 0.00 0.00 89 1014.2
20260510103843 11 159 0.0 0.0 0.00 0.00 0.00 89 1014.1
20260510103340 12 159 0.0 0.0 0.00 0.00 0.00 90 1014.0
20260510102840 12 159 0.0 0.0 0.00 0.00 0.00 89 1014.0
20260510102343 12 159 0.0 0.0 0.00 0.00 0.00 89 1013.9
20260510101843 12 159 0.0 0.0 0.00 0.00 0.00 89 1013.8
20260510101343 12 159 0.0 0.0 0.00 0.00 0.00 89 1013.7
20260510100840 12 159 0.0 0.0 0.00 0.00 0.00 89 1013.7
20260510100343 12 159 0.0 0.0 0.00 0.00 0.00 89 1013.6
20260510095840 12 159 0.0 0.0 0.00 0.00 0.00 89 1013.5
20260510095340 12 159 0.0 0.0 0.00 0.00 0.00 89 1013.5
20260510094840 12 159 0.0 0.0 0.00 0.00 0.00 89 1013.6
20260510094340 12 159 0.0 0.0 0.00 0.00 0.00 89 1013.5
20260510093843 12 159 0.0 0.0 0.00 0.00 0.00 89 1013.5
20260510093343 12 159 0.0 0.0 0.00 0.00 0.00 89 1013.4
20260510092843 13 159 0.0 0.0 0.00 0.00 0.00 89 1013.5
20260510092342 13 159 0.0 0.0 0.00 0.00 0.00 89 1013.5
20260510091842 13 159 0.0 0.0 0.00 0.00 0.00 89 1013.4
20260510091339 13 159 0.0 0.0 0.00 0.00 0.00 89 1013.4
20260510090843 13 159 0.0 0.0 0.00 0.00 0.00 89 1013.4
20260510090340 13 159 0.0 0.0 0.00 0.00 0.00 89 1013.3
20260510085843 13 159 0.0 0.0 0.00 0.00 0.00 89 1013.3
20260510085343 13 159 0.0 0.0 0.00 0.00 0.00 89 1013.2
20260510084843 13 159 0.0 0.0 0.00 0.00 0.00 89 1013.2
20260510084340 13 159 0.0 0.0 0.00 0.00 0.00 89 1013.1
20260510083840 13 159 0.0 0.0 0.00 0.00 0.00 89 1013.1
20260510083343 13 159 0.0 0.0 0.00 0.00 0.00 89 1013.0
20260510082840 13 159 0.0 0.0 0.00 0.00 0.00 89 1013.0
20260510082340 13 159 0.0 0.0 0.00 0.00 0.00 89 1013.0
20260510081839 13 159 0.0 0.0 0.00 0.00 0.00 89 1013.0
20260510081340 13 159 0.0 0.0 0.00 0.00 0.00 89 1012.9
20260510080843 13 159 0.0 0.0 0.00 0.00 0.00 89 1012.8
20260510080339 13 159 0.0 0.0 0.00 0.00 0.00 89 1012.8
20260510075843 14 159 0.0 0.0 0.00 0.00 0.00 89 1012.7
20260510075340 14 159 0.0 0.0 0.00 0.00 0.00 89 1012.8
20260510074843 14 159 0.0 0.0 0.00 0.00 0.00 89 1012.7
20260510074343 14 159 0.0 0.0 0.00 0.00 0.00 89 1012.7
20260510073842 14 159 0.0 0.0 0.00 0.00 0.00 89 1012.7
20260510073342 14 159 0.0 0.0 0.00 0.00 0.00 89 1012.6
20260510072843 14 159 0.0 0.0 0.00 0.00 0.00 89 1012.6
20260510072342 14 159 0.0 0.0 0.00 0.00 0.00 89 1012.7
20260510071839 14 159 0.0 0.0 0.00 0.00 0.00 89 1012.6
20260510071339 15 159 0.0 0.0 0.00 0.00 0.00 89 1012.6
20260510070843 15 159 0.0 0.0 0.00 0.00 0.00 89 1012.6
20260510065839 15 159 0.0 0.0 0.00 0.00 0.00 89 1012.5
20260510065336 15 159 0.0 0.0 0.00 0.00 0.00 89 1012.6
20260510064839 15 159 0.0 0.0 0.00 0.00 0.00 89 1012.6
20260510064339 15 159 0.0 0.0 0.00 0.00 0.00 89 1012.6
20260510063836 15 159 0.0 0.0 0.00 0.00 0.00 89 1012.6
20260510063336 15 159 0.0 0.0 0.00 0.00 0.00 89 1012.6
20260510062839 15 159 0.0 0.0 0.00 0.00 0.00 88 1012.6
20260510062336 15 159 0.0 0.0 0.00 0.00 0.00 88 1012.6
20260510061836 15 159 0.0 0.0 0.00 0.00 0.00 88 1012.7
20260510061339 15 159 0.0 1.6 0.00 0.00 0.00 88 1012.7
20260510060839 15 159 0.0 3.2 0.00 0.00 0.00 88 1012.8
20260510060336 15 159 0.0 0.0 0.00 0.00 0.00 88 1012.9
20260510055836 15 159 0.0 0.0 0.00 0.00 0.00 88 1012.9
20260510055336 15 159 0.0 0.0 0.00 0.00 0.00 88 1012.9
20260510054836 15 159 0.0 0.0 0.00 0.00 0.00 88 1012.9
20260510054336 15 159 0.0 0.0 0.00 0.00 0.00 88 1012.9
20260510053836 16 159 0.0 0.0 0.00 0.00 0.00 88 1012.8
20260510053336 16 159 0.0 0.0 0.00 0.00 0.00 88 1012.8
20260510052839 16 159 0.0 0.0 0.00 0.00 0.00 88 1012.9
20260510052339 16 159 0.0 3.2 0.00 0.00 0.00 88 1013.0
20260510051839 16 159 1.6 3.2 0.00 0.00 0.00 88 1013.1
20260510051336 16 159 1.6 1.6 0.00 0.00 0.00 87 1013.0
20260510050839 16 159 0.0 1.6 0.00 0.00 0.00 87 1013.0
20260510050339 16 159 0.0 3.2 0.00 0.00 0.00 87 1013.0
20260510045836 16 159 0.0 3.2 0.00 0.00 0.00 87 1012.9
20260510045339 16 159 3.2 6.4 0.00 0.00 0.00 87 1012.9
20260510044839 16 159 3.2 6.4 0.00 0.00 0.00 87 1013.0
20260510044336 16 159 1.6 3.2 0.00 0.00 0.00 87 1013.0
20260510043836 17 159 1.6 1.6 0.00 0.00 0.00 87 1013.1
20260510043339 17 159 0.0 0.0 0.00 0.00 0.00 87 1013.1
20260510042836 17 159 0.0 0.0 0.00 0.00 0.00 87 1013.1
20260510042336 17 159 0.0 6.4 0.00 0.00 0.00 86 1013.1
20260510041836 17 159 1.6 9.7 0.00 0.00 0.00 86 1013.1
20260510041336 17 189 4.8 6.4 0.00 0.00 0.00 86 1013.1
20260510040836 17 194 0.0 1.6 0.00 0.00 0.00 86 1013.0
20260510040339 17 194 0.0 3.2 0.00 0.00 0.00 86 1013.0
20260510035839 17 194 0.0 0.0 0.00 0.00 0.00 86 1013.1
20260510035336 17 194 0.0 4.8 0.00 0.00 0.00 86 1013.1
20260510034836 17 194 1.6 3.2 0.00 0.00 0.00 86 1012.9
20260510034339 17 194 0.0 4.8 0.00 0.00 0.00 86 1013.0
20260510033836 17 194 0.0 4.8 0.00 0.00 0.00 85 1013.1
20260510033336 17 194 4.8 4.8 0.00 0.00 0.00 85 1013.0
20260510032839 17 194 1.6 3.2 0.00 0.00 0.00 85 1013.0
20260510032336 17 194 0.0 6.4 0.00 0.00 0.00 85 1013.1
20260510031836 18 196 1.6 4.8 0.00 0.00 0.00 85 1013.1
20260510031339 18 196 0.0 0.0 0.00 0.00 0.00 85 1013.1
20260510030839 18 196 0.0 3.2 0.00 0.00 0.00 85 1013.0
20260510030336 18 196 0.0 4.8 0.00 0.00 0.00 85 1013.0
20260510025839 18 196 4.8 6.4 0.00 0.00 0.00 85 1013.0
20260510025339 18 196 0.0 6.4 0.00 0.00 0.00 84 1013.0
20260510024836 18 196 3.2 6.4 0.00 0.00 0.00 84 1013.0
20260510024336 18 195 4.8 6.4 0.00 0.00 0.00 84 1012.9
20260510023836 18 196 4.8 9.7 0.00 0.00 0.00 84 1012.9
20260510023336 18 194 1.6 6.4 0.00 0.00 0.00 84 1012.9
20260510022836 18 194 0.0 4.8 0.00 0.00 0.00 83 1012.9
20260510022339 18 194 3.2 9.7 0.00 0.00 0.00 83 1012.8
20260510021836 18 189 1.6 9.7 0.00 0.00 0.00 83 1012.7
20260510021339 18 190 3.2 9.7 0.00 0.00 0.00 83 1012.6
20260510020839 18 191 6.4 6.4 0.00 0.00 0.00 82 1012.6
20260510020336 18 192 6.4 9.7 0.00 0.00 0.00 82 1012.6
20260510015836 18 193 8.0 8.0 0.00 0.00 0.00 82 1012.5
20260510015336 18 193 6.4 8.0 0.00 0.00 0.00 81 1012.4
20260510014836 19 191 1.6 6.4 0.00 0.00 0.00 81 1012.4
20260510014336 19 191 1.6 4.8 0.00 0.00 0.00 81 1012.3
20260510013839 19 191 3.2 6.4 0.00 0.00 0.00 81 1012.2
20260510013339 19 191 3.2 9.7 0.00 0.00 0.00 81 1012.1
20260510012839 19 190 9.7 9.7 0.00 0.00 0.00 81 1012.1
20260510012336 19 192 8.0 9.7 0.00 0.00 0.00 80 1012.1
20260510011839 19 184 3.2 9.7 0.00 0.00 0.00 80 1011.9
20260510011339 20 192 3.2 8.0 0.00 0.00 0.00 79 1011.7
20260510010839 20 194 3.2 8.0 0.00 0.00 0.00 79 1011.7
20260510010339 20 190 0.0 0.0 0.00 0.00 0.00 78 1011.6
20260510005836 20 190 0.0 6.4 0.00 0.00 0.00 78 1011.5
20260510005336 20 190 3.2 4.8 0.00 0.00 0.00 78 1011.4
20260510004839 20 190 1.6 6.4 0.00 0.00 0.00 77 1011.4
20260510004336 20 193 3.2 8.0 0.00 0.00 0.00 77 1011.3
20260510003839 20 197 4.8 6.4 0.00 0.00 0.00 77 1011.2
20260510003339 20 194 3.2 6.4 0.00 0.00 0.00 76 1011.1
20260510002839 20 202 3.2 8.0 0.00 0.00 0.00 76 1011.0
20260510002339 21 190 1.6 11.3 0.00 0.00 0.00 75 1011.0
20260510001839 21 178 1.6 4.8 0.00 0.00 0.00 75 1011.1
20260510001339 21 178 3.2 6.4 0.00 0.00 0.00 75 1011.0
20260510000836 21 176 1.6 11.3 0.00 0.00 0.00 75 1010.9
20260510000341 21 173 1.6 12.9 0.00 0.00 0.00 75 1010.8
20260509235836 21 163 11.3 17.7 0.00 0.00 0.00 74 1010.6
20260509235339 21 185 8.0 14.5 0.00 0.00 0.00 74 1010.6
20260509234839 21 184 11.3 12.9 0.00 0.00 0.00 73 1010.7
20260509234336 21 153 3.2 12.9 0.00 0.00 0.00 73 1010.6
20260509233839 21 182 6.4 9.7 0.00 0.00 0.00 73 1010.7
20260509233336 21 205 4.8 14.5 0.00 0.00 0.00 73 1010.7
20260509232839 22 194 16.1 22.5 0.00 0.00 0.00 72 1010.6
20260509232339 22 179 12.9 14.5 0.00 0.00 0.00 72 1010.4
20260509231839 22 171 1.6 14.5 0.00 0.00 0.00 71 1010.3
20260509231339 22 190 8.0 16.1 0.00 0.00 0.00 70 1010.1
20260509230836 22 189 1.6 20.9 0.00 0.00 0.00 70 1010.2
20260509230336 22 223 6.4 14.5 0.00 0.00 0.00 69 1010.2
20260509225839 22 188 6.4 20.9 0.00 0.00 0.00 69 1010.1
20260509225336 22 173 16.1 22.5 0.00 0.00 0.00 69 1010.1
20260509224839 23 155 17.7 24.1 0.00 0.00 0.00 68 1010.0
20260509224339 23 188 8.0 19.3 0.00 0.00 0.00 67 1009.8
20260509223839 23 192 9.7 20.9 0.00 0.00 0.00 68 1009.8
20260509223339 23 213 12.9 17.7 0.00 0.00 0.00 67 1009.8
20260509222836 23 186 9.7 14.5 0.00 0.00 0.00 66 1009.8
20260509222336 23 180 11.3 17.7 0.00 0.00 0.00 67 1009.8
20260509221839 23 186 14.5 17.7 0.00 0.00 0.00 65 1009.8
20260509221339 23 192 11.3 16.1 0.00 0.00 0.00 65 1009.7
20260509220839 23 196 11.3 17.7 0.00 0.00 0.00 64 1009.6
20260509220336 23 200 6.4 22.5 0.00 0.00 0.00 65 1009.7
20260509215836 24 161 14.5 22.5 0.00 0.00 0.00 64 1009.7
20260509215336 24 156 8.0 20.9 0.00 0.00 0.00 63 1009.7
20260509214836 25 188 17.7 19.3 0.00 0.00 0.00 62 1009.8
20260509214336 24 198 14.5 20.9 0.00 0.00 0.00 65 1009.6
20260509213836 24 272 17.7 17.7 0.00 0.00 0.00 63 1009.7
20260509213336 24 233 8.0 14.5 0.00 0.00 0.00 64 1009.7
20260509212836 24 172 8.0 19.3 0.00 0.00 0.00 65 1009.6
20260509212339 24 249 1.6 17.7 0.00 0.00 0.00 64 1009.6
20260509211836 24 203 4.8 17.7 0.00 0.00 0.00 64 1009.6
20260509211339 24 164 6.4 20.9 0.00 0.00 0.00 64 1009.7
20260509210836 24 165 8.0 20.9 0.00 0.00 0.00 64 1009.6
20260509210339 25 247 12.9 22.5 0.00 0.00 0.00 62 1009.5
20260509205836 25 178 11.3 20.9 0.00 0.00 0.00 65 1009.4
20260509205336 24 192 12.9 19.3 0.00 0.00 0.00 65 1009.4
20260509204839 24 168 8.0 20.9 0.00 0.00 0.00 65 1009.3
20260509204336 24 300 4.8 19.3 0.00 0.00 0.00 68 1009.2
20260509203839 23 200 4.8 16.1 0.00 0.00 0.00 66 1009.2
20260509203336 23 153 6.4 19.3 0.00 0.00 0.00 66 1009.3
20260509202836 23 151 14.5 24.1 0.00 0.00 0.00 65 1009.5
20260509202336 23 194 11.3 22.5 0.00 0.00 0.00 65 1009.5
20260509201839 23 275 17.7 20.9 0.00 0.00 0.00 67 1009.5
20260509201336 23 182 12.9 19.3 0.00 0.00 0.00 68 1009.5
20260509200839 23 244 6.4 17.7 0.00 0.00 0.00 70 1009.5
20260509200336 23 198 14.5 22.5 0.00 0.00 0.00 69 1009.7
20260509195836 23 208 14.5 20.9 0.00 0.00 0.00 67 1009.6
20260509195336 23 200 8.0 22.5 0.00 0.00 0.00 67 1009.6
20260509194836 23 142 8.0 24.1 0.00 0.00 0.00 67 1009.7
20260509194339 23 207 9.7 16.1 0.00 0.00 0.00 71 1009.6
20260509193836 23 202 11.3 20.9 0.00 0.00 0.00 69 1009.7
20260509193339 23 193 8.0 17.7 0.00 0.00 0.00 69 1009.8
20260509192836 23 214 14.5 16.1 0.00 0.00 0.00 69 1009.8
20260509192336 23 215 14.5 19.3 0.00 0.00 0.00 70 1009.9
20260509191839 23 150 14.5 16.1 0.00 0.00 0.00 73 1010.1
20260509191336 22 208 9.7 19.3 0.00 0.00 0.00 70 1010.1
20260509190839 22 242 12.9 20.9 0.00 0.00 0.00 73 1010.1
20260509190339 22 223 12.9 22.5 0.00 0.00 0.00 74 1010.0
20260509185839 22 171 9.7 25.7 0.00 0.00 0.00 69 1010.0
20260509185336 22 180 20.9 22.5 0.00 0.00 0.00 71 1010.0
20260509184836 22 196 11.3 22.5 0.00 0.00 0.00 70 1010.0
20260509184339 22 140 8.0 25.7 0.00 0.00 0.00 72 1010.1
20260509183836 23 244 11.3 27.4 0.00 0.00 0.00 68 1010.0
20260509183336 22 169 22.5 22.5 0.00 0.00 0.00 71 1010.0
20260509182839 22 215 8.0 19.3 0.00 0.00 0.00 68 1010.1
20260509182339 23 229 12.9 22.5 0.00 0.00 0.00 70 1010.2
20260509181839 23 203 14.5 27.4 0.00 0.00 0.00 66 1010.3
20260509181339 23 159 14.5 24.1 0.00 0.00 0.00 70 1010.4
20260509180839 22 140 11.3 16.1 0.00 0.00 0.00 70 1010.4
20260509180339 22 196 9.7 19.3 0.00 0.00 0.00 70 1010.5
20260509175839 22 237 8.0 19.3 0.00 0.00 0.00 69 1010.6
20260509175336 22 178 17.7 17.7 0.00 0.00 0.00 71 1010.6
20260509174836 22 217 8.0 17.7 0.00 0.00 0.00 69 1010.6
20260509174339 22 173 9.7 24.1 0.00 0.00 0.00 69 1010.6
20260509173836 22 270 6.4 22.5 0.00 0.00 0.00 71 1010.6
20260509173335 22 167 9.7 32.2 0.00 0.00 0.00 70 1010.5
20260509172835 22 194 8.0 27.4 0.00 0.00 0.00 68 1010.5
20260509172335 22 165 25.7 25.7 0.00 0.00 0.00 68 1010.6
20260509171838 22 257 11.3 20.9 0.00 0.00 0.00 69 1010.7
20260509171338 22 167 8.0 17.7 0.00 0.00 0.00 72 1010.7
20260509170838 22 221 9.7 16.1 0.00 0.00 0.00 69 1010.8
20260509170335 22 232 4.8 19.3 0.00 0.00 0.00 69 1010.8
20260509165835 22 169 11.3 14.5 0.00 0.00 0.00 70 1010.9
20260509165335 22 229 8.0 19.3 0.00 0.00 0.00 69 1010.9
20260509164838 22 171 6.4 20.9 0.00 0.00 0.00 68 1011.0
20260509164338 22 163 17.7 27.4 0.00 0.00 0.00 70 1011.1
20260509163835 22 159 11.3 19.3 0.00 0.00 0.00 69 1011.3
20260509163338 22 184 14.5 24.1 0.00 0.00 0.00 71 1011.2
20260509162838 22 173 12.9 24.1 0.00 0.00 0.00 71 1011.2